Regional Weather Roundup
Issued by NWS

Home | Current Version | Previous Version | Text Only | Print | Product List | Glossary On
Versions: 1 2 3 4 5 6 7 8 9 10 11 12 13 14 15 16 17 18 19 20 21 22 23 24 25 26 27 28 29 30 31 32 33 34 35 36 37 38 39 40 41 42 43 44 45 46 47 48 49 50
296
ASPQ40 PGUM 232312
RWRPQ
WEATHER ROUNDUP FOR THE MARIANAS AND MICRONESIA
NATIONAL WEATHER SERVICE TIYAN GU
900 AM CHST THU AUG 24 2017

GUZ001>004-240000-
MARIANA ISLANDS-

CITY           SKY/WX    TMP DP  RH WIND       PRES   REMARKS
GUAM AIRPORT   SUNNY     82  79  89 CALM      29.88S HX  93
ANDERSEN AFB   SUNNY     81  75  83 NE7       29.93F
ROTA AIRPORT   CLOUDY    77  73  88 CALM      29.89S
TINIAN AP      LGT RAIN  75  73  94 W14       29.90R
SAIPAN AP      PTSUNNY   84  79  84 NW5       29.89R HX  96

$$

PMZ161-240000-
REPUBLIC OF PALAU-

CITY           SKY/WX    TMP DP  RH WIND       PRES   REMARKS
KOROR AP       PTSUNNY   82  77  83 W6        29.86R HX  91
KOROR WSO      PTSUNNY   84  79  84 N6        29.87R HX  96

$$

PMZ171>174-240000-
FEDERATED STATES OF MICRONESIA-

CITY           SKY/WX    TMP DP  RH WIND       PRES   REMARKS
YAP AIRPORT    LGT RAIN  81  77  89 VRB6      29.84S
CHUUK AP       MOSUNNY   86  79  79 VRB5      29.83R HX  99
POHNPEI AP     PTSUNNY   86  77  74 W7        29.84S HX  97
POHNPEI WSO    PTSUNNY   88  77  70 VRB3      29.86S HX 100
KOSRAE AP      PTSUNNY   86  77  74 S6        29.83F HX  97

$$

PMZ181-240000-
REPUBLIC OF THE MARSHALL ISLANDS-

CITY           SKY/WX    TMP DP  RH WIND       PRES   REMARKS
KWAJALEIN AP   MOSUNNY   88  73  62 SE15      29.86F HX  96
MAJURO AP      PTSUNNY   84  77  79 E8        29.87F HX  94
MAJURO WSO     MOSUNNY   86  75  70 SE6       29.85F HX  95

$$





USA.gov is the U.S. government's official web portal to all federal, state and local government web resources and services.